Dubuque, IA

6:52 PM CST on November 21, 2019 (GMT -0600)
Dubuque Regional

Weather History for KDBQ - October, 2019

Change the Weather History Date:

Sunday, October 13, 2019

  Actual Average Record
Temperature  
Mean Temperature 39 °F 51 °F  
Max Temperature 44 °F 61 °F 85 °F (1975)
Min Temperature 34 °F 41 °F 22 °F (1917)
Degree Days  
Heating Degree Days 26 14  
Month to date heating degree days 152 159  
Since 1 July heating degree days 214 337  
Cooling Degree Days 0 0  
Month to date cooling degree days 9 4  
Year to date cooling degree days 679 641  
Moisture  
Dew Point 30 °F    
Average Humidity 71    
Maximum Humidity 79    
Minimum Humidity 60    
Precipitation  
Precipitation T in 0.08 in 1.56 in (2014)
Month to date precipitation 5.42 1.12  
Year to date precipitation 49.86 30.56  
Snow  
Snow - 0.00 in - ()
Month to date snowfall 0.0 0.0  
Since 1 July snowfall 0.0 0.0  
Since 1 September snowfall 0.0 0.0  
Snow Depth 0.00 in    
Sea Level Pressure  
Sea Level Pressure 29.86 in    
Wind  
Wind Speed 10 mph ()    
Max Wind Speed 21 mph    
Max Gust Speed 29 mph    
Visibility 10.0 miles    
Events      
T = Trace of Precipitation, MM = Missing Value Source: Averaged Metar Reports

Daily Weather History Graph

Daily Weather History Graph

Search for Another Location

Airport or City:

Astronomy

Oct. 13, 2019 Rise Set
Actual Time 7:13 AM CDT 6:24 PM CDT
Civil Twilight 6:44 AM CDT 6:52 PM CDT
Nautical Twilight 6:12 AM CDT 7:25 PM CDT
Astronomical Twilight 5:39 AM CDT 7:57 PM CDT
Moon 6:48 PM CDT (10/13) 6:45 AM CDT (10/13)
Length of Visible Light 12h 07m
Length of Day
11h 11m
Full, 100% of the Moon is Illuminated
Oct 13
Full
Oct 13
Full
Oct 21
Last Quarter
Oct 27
New
Nov 4
First Quarter

Hourly Weather History & Observations

Time (CDT) Temp. Windchill Dew Point Humidity Pressure Visibility Wind Dir Wind Speed Gust Speed Precip Events Conditions
12:53 AM 37.0 °F 30.4 °F 28.9 °F 73% 29.81 in 10.0 mi SW 9.2 mph - N/A   Overcast
1:53 AM 37.0 °F 30.4 °F 30.0 °F 76% 29.82 in 10.0 mi WSW 9.2 mph - 0.00 in   Overcast
2:37 AM 37.0 °F 28.5 °F 30.9 °F 79% 29.80 in 10.0 mi SW 13.8 mph 19.6 mph 0.00 in   Overcast
2:53 AM 37.0 °F 29.3 °F 30.0 °F 76% 29.81 in 10.0 mi West 11.5 mph - 0.00 in   Overcast
3:12 AM 37.0 °F 28.9 °F 30.0 °F 76% 29.79 in 10.0 mi WSW 12.7 mph - N/A   Overcast
3:44 AM 36.0 °F 28.5 °F 28.9 °F 76% 29.79 in 10.0 mi West 10.4 mph - N/A   Overcast
3:53 AM 36.0 °F 29.6 °F 28.9 °F 76% 29.81 in 10.0 mi West 8.1 mph - N/A   Overcast
4:53 AM 37.0 °F 30.4 °F 30.0 °F 76% 29.82 in 10.0 mi WSW 9.2 mph - N/A   Overcast
5:20 AM 37.0 °F 29.8 °F 30.0 °F 76% 29.79 in 10.0 mi WSW 10.4 mph - N/A   Overcast
5:53 AM 37.0 °F 28.9 °F 30.0 °F 76% 29.82 in 10.0 mi SW 12.7 mph - N/A   Overcast
6:22 AM 37.0 °F 28.9 °F 30.0 °F 76% 29.79 in 10.0 mi SW 12.7 mph - N/A   Overcast
6:53 AM 37.0 °F 28.9 °F 30.0 °F 76% 29.83 in 10.0 mi WSW 12.7 mph - N/A   Overcast
7:16 AM 37.0 °F 28.5 °F 28.9 °F 73% 29.81 in 10.0 mi West 13.8 mph - N/A   Overcast
7:53 AM 37.0 °F 30.4 °F 30.0 °F 76% 29.85 in 10.0 mi West 9.2 mph - 0.00 in   Overcast
8:30 AM 37.0 °F 30.4 °F 30.0 °F 76% 29.82 in 10.0 mi West 9.2 mph - N/A   Overcast
8:53 AM 37.0 °F 30.4 °F 30.0 °F 76% 29.84 in 10.0 mi West 9.2 mph - N/A   Overcast
9:16 AM 37.9 °F 30.9 °F 30.9 °F 76% 29.82 in 10.0 mi WSW 10.4 mph - N/A   Overcast
9:53 AM 39.0 °F 32.3 °F 32.0 °F 76% 29.85 in 10.0 mi West 10.4 mph - N/A   Overcast
10:53 AM 41.0 °F 33.9 °F 32.0 °F 70% 29.85 in 10.0 mi WSW 12.7 mph - N/A   Overcast
11:53 AM 41.0 °F 32.8 °F 30.9 °F 67% 29.86 in 10.0 mi WSW 16.1 mph 24.2 mph N/A   Overcast
12:53 PM 42.1 °F 35.7 °F 30.9 °F 65% 29.87 in 10.0 mi West 11.5 mph 20.7 mph N/A   Overcast
1:25 PM 43.0 °F 35.7 °F 32.0 °F 65% 29.84 in 10.0 mi West 15.0 mph 25.3 mph 0.00 in   Overcast
1:53 PM 43.0 °F 35.1 °F 30.0 °F 60% 29.87 in 10.0 mi WNW 17.3 mph 28.8 mph 0.00 in   Overcast
2:53 PM 43.0 °F 36.8 °F 30.0 °F 60% 29.87 in 10.0 mi West 11.5 mph - N/A   Overcast
3:53 PM 43.0 °F 36.0 °F 30.0 °F 60% 29.89 in 10.0 mi West 13.8 mph - N/A   Overcast
4:53 PM 43.0 °F 38.2 °F 30.9 °F 62% 29.91 in 10.0 mi NW 8.1 mph - N/A   Overcast
5:53 PM 43.0 °F 38.8 °F 30.9 °F 62% 29.92 in 10.0 mi NW 6.9 mph - N/A   Overcast
6:53 PM 42.1 °F 38.4 °F 30.9 °F 65% 29.94 in 10.0 mi NW 5.8 mph - N/A   Overcast
7:53 PM 41.0 °F 38.0 °F 30.9 °F 67% 29.96 in 10.0 mi NW 4.6 mph - N/A   Overcast
8:53 PM 41.0 °F 35.8 °F 30.9 °F 67% 29.97 in 10.0 mi NW 8.1 mph - N/A   Overcast
9:53 PM 39.9 °F 35.1 °F 30.0 °F 68% 29.99 in 10.0 mi NW 6.9 mph - N/A   Overcast
10:53 PM 37.9 °F 32.7 °F 28.9 °F 70% 29.99 in 10.0 mi WNW 6.9 mph - N/A   Scattered Clouds
11:53 PM 36.0 °F 30.3 °F 28.9 °F 76% 30.00 in 10.0 mi West 6.9 mph - N/A   Clear